| time (UTC) | temp C | wind direction | speed KPH | gust KPH | rain 1hr cm | rain 24hr cm | rain mn cm | humidity % | barometer mb |
| 20260503193806 | 28 | 14 | 3.2 | 4.8 | 0.00 | 0.00 | 0.00 | 39 | 1009.0 |
| 20260503193306 | 28 | 348 | 3.2 | 8.0 | 0.00 | 0.00 | 0.00 | 37 | 1009.2 |
| 20260503192806 | 28 | 38 | 1.6 | 8.0 | 0.00 | 0.00 | 0.00 | 41 | 1009.3 |
| 20260503192307 | 28 | 102 | 3.2 | 4.8 | 0.00 | 0.00 | 0.00 | 40 | 1009.4 |
| 20260503191806 | 27 | 50 | 3.2 | 4.8 | 0.00 | 0.00 | 0.00 | 41 | 1009.4 |
| 20260503190806 | 27 | 55 | 1.6 | 4.8 | 0.00 | 0.00 | 0.00 | 43 | 1009.5 |
| 20260503190306 | 27 | 86 | 3.2 | 8.0 | 0.00 | 0.00 | 0.00 | 43 | 1009.7 |
| 20260503185806 | 27 | 66 | 3.2 | 8.0 | 0.00 | 0.00 | 0.00 | 44 | 1009.7 |
| 20260503185306 | 26 | 45 | 4.8 | 8.0 | 0.00 | 0.00 | 0.00 | 45 | 1009.9 |
| 20260503184806 | 26 | 23 | 4.8 | 8.0 | 0.00 | 0.00 | 0.00 | 46 | 1009.9 |
| 20260503184306 | 26 | 6 | 4.8 | 9.7 | 0.00 | 0.00 | 0.00 | 45 | 1009.9 |
| 20260503183806 | 26 | 53 | 6.4 | 14.5 | 0.00 | 0.00 | 0.00 | 47 | 1010.0 |
| 20260503182806 | 25 | 71 | 3.2 | 8.0 | 0.00 | 0.00 | 0.00 | 48 | 1010.1 |
| 20260503182306 | 25 | 51 | 3.2 | 14.5 | 0.00 | 0.00 | 0.00 | 49 | 1010.1 |
| 20260503181806 | 24 | 44 | 4.8 | 8.0 | 0.00 | 0.00 | 0.00 | 49 | 1010.2 |
| 20260503181307 | 25 | 134 | 3.2 | 9.7 | 0.00 | 0.00 | 0.00 | 49 | 1010.2 |
| 20260503180806 | 24 | 68 | 3.2 | 8.0 | 0.00 | 0.00 | 0.00 | 50 | 1010.2 |
| 20260503180306 | 24 | 43 | 3.2 | 8.0 | 0.00 | 0.00 | 0.00 | 50 | 1010.3 |
| 20260503175806 | 24 | 40 | 4.8 | 12.9 | 0.00 | 0.00 | 0.00 | 51 | 1010.3 |
| 20260503175306 | 24 | 76 | 4.8 | 16.1 | 0.00 | 0.00 | 0.00 | 51 | 1010.3 |
| 20260503174806 | 23 | 28 | 4.8 | 14.5 | 0.00 | 0.00 | 0.00 | 52 | 1010.4 |
| 20260503174306 | 23 | 38 | 3.2 | 8.0 | 0.00 | 0.00 | 0.00 | 52 | 1010.4 |
| 20260503173806 | 23 | 46 | 3.2 | 11.3 | 0.00 | 0.00 | 0.00 | 53 | 1010.4 |
| 20260503173306 | 23 | 94 | 3.2 | 9.7 | 0.00 | 0.00 | 0.00 | 54 | 1010.5 |
| 20260503172806 | 23 | 84 | 4.8 | 9.7 | 0.00 | 0.00 | 0.00 | 53 | 1010.5 |
| 20260503172306 | 22 | 83 | 6.4 | 12.9 | 0.00 | 0.00 | 0.00 | 53 | 1010.5 |
| 20260503171806 | 22 | 68 | 4.8 | 11.3 | 0.00 | 0.00 | 0.00 | 54 | 1010.6 |
| 20260503171305 | 22 | 62 | 4.8 | 12.9 | 0.00 | 0.00 | 0.00 | 54 | 1010.6 |
| 20260503170806 | 22 | 47 | 4.8 | 16.1 | 0.00 | 0.00 | 0.00 | 55 | 1010.8 |
| 20260503170306 | 22 | 26 | 4.8 | 12.9 | 0.00 | 0.00 | 0.00 | 57 | 1010.7 |
| 20260503150306 | 15 | 341 | 3.2 | 4.8 | 0.00 | 0.00 | 0.00 | 86 | 1011.2 |
| 20260503131305 | 11 | 183 | 0.0 | 0.0 | 0.00 | 0.00 | 0.00 | 95 | 1010.8 |
| 20260503130806 | 11 | 183 | 0.0 | 0.0 | 0.00 | 0.00 | 0.00 | 95 | 1010.8 |
| 20260503130305 | 11 | 183 | 0.0 | 0.0 | 0.00 | 0.00 | 0.00 | 95 | 1010.7 |
| 20260503110305 | 11 | 171 | 0.0 | 0.0 | 0.00 | 0.00 | 0.00 | 94 | 1011.0 |
| 20260503090305 | 12 | 171 | 0.0 | 1.6 | 0.00 | 0.00 | 0.00 | 92 | 1011.4 |
| 20260503081305 | 12 | 171 | 3.2 | 4.8 | 0.00 | 0.00 | 0.00 | 91 | 1011.5 |
| 20260503080805 | 12 | 171 | 1.6 | 3.2 | 0.00 | 0.00 | 0.00 | 91 | 1011.5 |
| 20260503080306 | 12 | 171 | 0.0 | 4.8 | 0.00 | 0.00 | 0.00 | 91 | 1011.5 |
| 20260503072306 | 13 | 171 | 0.0 | 1.6 | 0.00 | 0.00 | 0.00 | 90 | 1011.5 |
| 20260503071804 | 13 | 171 | 1.6 | 3.2 | 0.00 | 0.00 | 0.00 | 89 | 1011.6 |
| 20260503071305 | 13 | 171 | 1.6 | 3.2 | 0.00 | 0.00 | 0.00 | 89 | 1011.6 |
| 20260503070818 | 13 | 171 | 3.2 | 4.8 | 0.00 | 0.00 | 0.00 | 89 | 1011.6 |
| 20260503070305 | 13 | 171 | 0.0 | 3.2 | 0.00 | 0.00 | 0.00 | 88 | 1011.6 |
| 20260503060304 | 15 | 171 | 1.6 | 3.2 | 0.00 | 0.00 | 0.00 | 85 | 1011.6 |
| 20260503054805 | 15 | 155 | 1.6 | 3.2 | 0.00 | 0.00 | 0.00 | 84 | 1011.8 |
| 20260503054305 | 15 | 155 | 0.0 | 4.8 | 0.00 | 0.00 | 0.00 | 84 | 1011.6 |
| 20260503053805 | 15 | 155 | 3.2 | 4.8 | 0.00 | 0.00 | 0.00 | 83 | 1011.7 |
| 20260503053304 | 16 | 155 | 1.6 | 4.8 | 0.00 | 0.00 | 0.00 | 82 | 1011.7 |
| 20260503052805 | 16 | 158 | 3.2 | 4.8 | 0.00 | 0.00 | 0.00 | 82 | 1011.6 |
| 20260503052306 | 16 | 219 | 3.2 | 4.8 | 0.00 | 0.00 | 0.00 | 81 | 1011.5 |
| 20260503051804 | 16 | 349 | 1.6 | 3.2 | 0.00 | 0.00 | 0.00 | 80 | 1011.5 |
| 20260503051305 | 16 | 349 | 0.0 | 3.2 | 0.00 | 0.00 | 0.00 | 79 | 1011.5 |
| 20260503050805 | 17 | 348 | 1.6 | 3.2 | 0.00 | 0.00 | 0.00 | 79 | 1011.5 |
| 20260503050304 | 17 | 348 | 3.2 | 4.8 | 0.00 | 0.00 | 0.00 | 79 | 1011.5 |
| 20260503045805 | 17 | 5 | 1.6 | 4.8 | 0.00 | 0.00 | 0.00 | 78 | 1011.6 |
| 20260503045305 | 17 | 5 | 3.2 | 4.8 | 0.00 | 0.00 | 0.00 | 78 | 1011.5 |
| 20260503044804 | 17 | 19 | 3.2 | 4.8 | 0.00 | 0.00 | 0.00 | 78 | 1011.6 |
| 20260503044305 | 17 | 40 | 1.6 | 4.8 | 0.00 | 0.00 | 0.00 | 77 | 1011.8 |
| 20260503043804 | 17 | 40 | 3.2 | 4.8 | 0.00 | 0.00 | 0.00 | 77 | 1011.5 |
| 20260503043304 | 17 | 341 | 1.6 | 4.8 | 0.00 | 0.00 | 0.00 | 77 | 1011.3 |
| 20260503042804 | 17 | 340 | 3.2 | 4.8 | 0.00 | 0.00 | 0.00 | 77 | 1011.3 |
| 20260503041805 | 17 | 348 | 3.2 | 4.8 | 0.00 | 0.00 | 0.00 | 77 | 1011.3 |
| 20260503041305 | 17 | 355 | 3.2 | 4.8 | 0.00 | 0.00 | 0.00 | 77 | 1011.2 |
| 20260503040805 | 17 | 348 | 1.6 | 4.8 | 0.00 | 0.00 | 0.00 | 78 | 1011.2 |
| 20260503040304 | 17 | 355 | 3.2 | 4.8 | 0.00 | 0.00 | 0.00 | 78 | 1011.1 |
| 20260503035805 | 17 | 356 | 4.8 | 4.8 | 0.00 | 0.00 | 0.00 | 78 | 1011.2 |
| 20260503035305 | 17 | 73 | 3.2 | 4.8 | 0.00 | 0.00 | 0.00 | 78 | 1011.3 |
| 20260503034806 | 17 | 74 | 1.6 | 3.2 | 0.00 | 0.00 | 0.00 | 78 | 1011.3 |
| 20260503033804 | 17 | 311 | 1.6 | 1.6 | 0.00 | 0.00 | 0.00 | 78 | 1011.3 |
| 20260503033305 | 17 | 311 | 0.0 | 1.6 | 0.00 | 0.00 | 0.00 | 77 | 1011.2 |
| 20260503032308 | 17 | 311 | 1.6 | 3.2 | 0.00 | 0.00 | 0.00 | 76 | 1011.0 |
| 20260503031807 | 17 | 311 | 1.6 | 3.2 | 0.00 | 0.00 | 0.00 | 75 | 1011.0 |
| 20260503031307 | 18 | 311 | 0.0 | 1.6 | 0.00 | 0.00 | 0.00 | 74 | 1011.0 |
| 20260503030807 | 18 | 311 | 1.6 | 4.8 | 0.00 | 0.00 | 0.00 | 74 | 1010.9 |
| 20260503030307 | 18 | 312 | 3.2 | 4.8 | 0.00 | 0.00 | 0.00 | 74 | 1010.8 |
| 20260503025807 | 18 | 0 | 3.2 | 4.8 | 0.00 | 0.00 | 0.00 | 74 | 1010.9 |
| 20260503025307 | 18 | 298 | 1.6 | 4.8 | 0.00 | 0.00 | 0.00 | 74 | 1010.9 |
| 20260503024807 | 18 | 298 | 1.6 | 4.8 | 0.00 | 0.00 | 0.00 | 73 | 1011.1 |
| 20260503024307 | 18 | 228 | 3.2 | 4.8 | 0.00 | 0.00 | 0.00 | 73 | 1011.2 |
| 20260503023307 | 18 | 224 | 1.6 | 4.8 | 0.00 | 0.00 | 0.00 | 73 | 1011.1 |
| 20260503022807 | 18 | 148 | 3.2 | 14.5 | 0.00 | 0.00 | 0.00 | 73 | 1011.3 |
| 20260503022307 | 18 | 172 | 8.0 | 19.3 | 0.00 | 0.00 | 0.00 | 73 | 1011.5 |
| 20260503021307 | 18 | 163 | 9.7 | 19.3 | 0.00 | 0.00 | 0.00 | 72 | 1011.7 |
| 20260503020307 | 18 | 177 | 12.9 | 25.7 | 0.00 | 0.00 | 0.00 | 72 | 1011.7 |
| 20260503015307 | 18 | 176 | 11.3 | 19.3 | 0.00 | 0.00 | 0.00 | 73 | 1011.7 |
| 20260503014807 | 18 | 180 | 6.4 | 11.3 | 0.00 | 0.00 | 0.00 | 72 | 1011.2 |
| 20260503014307 | 19 | 145 | 8.0 | 16.1 | 0.00 | 0.00 | 0.00 | 72 | 1011.0 |
| 20260503013807 | 19 | 185 | 4.8 | 14.5 | 0.00 | 0.00 | 0.00 | 72 | 1010.9 |
| 20260503012808 | 20 | 199 | 4.8 | 11.3 | 0.00 | 0.00 | 0.00 | 66 | 1010.8 |
| 20260503012307 | 20 | 197 | 3.2 | 4.8 | 0.00 | 0.00 | 0.00 | 66 | 1010.8 |
| 20260503011307 | 20 | 210 | 1.6 | 3.2 | 0.00 | 0.00 | 0.00 | 66 | 1010.7 |
| 20260503010307 | 20 | 194 | 1.6 | 4.8 | 0.00 | 0.00 | 0.00 | 65 | 1010.6 |
| 20260503005807 | 20 | 196 | 1.6 | 4.8 | 0.00 | 0.00 | 0.00 | 66 | 1010.6 |
| 20260503005307 | 20 | 196 | 3.2 | 4.8 | 0.00 | 0.00 | 0.00 | 65 | 1010.6 |
| 20260503004307 | 20 | 229 | 1.6 | 4.8 | 0.00 | 0.00 | 0.00 | 64 | 1010.6 |
| 20260503003807 | 20 | 246 | 3.2 | 8.0 | 0.00 | 0.00 | 0.00 | 66 | 1010.6 |
| 20260503003307 | 20 | 236 | 4.8 | 4.8 | 0.00 | 0.00 | 0.00 | 64 | 1010.6 |
| 20260503002807 | 20 | 244 | 3.2 | 4.8 | 0.00 | 0.00 | 0.00 | 65 | 1010.6 |
| 20260503002307 | 20 | 291 | 3.2 | 4.8 | 0.00 | 0.00 | 0.00 | 66 | 1010.7 |
| 20260503001807 | 20 | 294 | 4.8 | 9.7 | 0.00 | 0.00 | 0.00 | 66 | 1010.7 |
| 20260503001307 | 20 | 303 | 4.8 | 8.0 | 0.00 | 0.00 | 0.00 | 65 | 1010.8 |
| 20260503000307 | 20 | 245 | 4.8 | 9.7 | 0.00 | 0.00 | 0.00 | 64 | 1010.9 |
| 20260502235807 | 20 | 236 | 3.2 | 4.8 | 0.00 | 0.00 | 0.00 | 65 | 1010.8 |
| 20260502234807 | 20 | 195 | 3.2 | 9.7 | 0.00 | 0.00 | 0.00 | 66 | 1010.9 |
| 20260502234307 | 20 | 261 | 1.6 | 9.7 | 0.00 | 0.00 | 0.00 | 65 | 1010.9 |
| 20260502233807 | 20 | 260 | 6.4 | 9.7 | 0.00 | 0.00 | 0.00 | 65 | 1010.9 |
| 20260502233308 | 20 | 259 | 3.2 | 11.3 | 0.00 | 0.00 | 0.00 | 65 | 1011.0 |
| 20260502232807 | 20 | 192 | 4.8 | 9.7 | 0.00 | 0.00 | 0.00 | 66 | 1011.1 |
| 20260502232307 | 20 | 240 | 4.8 | 12.9 | 0.00 | 0.00 | 0.00 | 66 | 1011.2 |
| 20260502231807 | 20 | 205 | 3.2 | 8.0 | 0.00 | 0.00 | 0.00 | 65 | 1011.2 |
| 20260502231307 | 20 | 212 | 3.2 | 9.7 | 0.00 | 0.00 | 0.00 | 66 | 1011.3 |
| 20260502230306 | 19 | 215 | 4.8 | 11.3 | 0.00 | 0.00 | 0.00 | 68 | 1011.6 |
| 20260502225807 | 19 | 288 | 3.2 | 8.0 | 0.00 | 0.00 | 0.00 | 68 | 1011.6 |
| 20260502225306 | 18 | 271 | 4.8 | 14.5 | 0.00 | 0.00 | 0.00 | 68 | 1011.7 |
| 20260502224807 | 18 | 283 | 4.8 | 8.0 | 0.00 | 0.00 | 0.00 | 67 | 1011.8 |
| 20260502224307 | 19 | 243 | 4.8 | 11.3 | 0.00 | 0.00 | 0.00 | 67 | 1011.8 |
| 20260502223807 | 19 | 221 | 3.2 | 8.0 | 0.00 | 0.00 | 0.00 | 67 | 1011.9 |
| 20260502223306 | 19 | 314 | 4.8 | 11.3 | 0.00 | 0.00 | 0.00 | 67 | 1011.9 |
| 20260502222807 | 19 | 319 | 4.8 | 9.7 | 0.00 | 0.00 | 0.00 | 68 | 1012.0 |
| 20260502222307 | 18 | 264 | 4.8 | 11.3 | 0.00 | 0.00 | 0.00 | 66 | 1012.0 |
| 20260502221807 | 19 | 244 | 8.0 | 11.3 | 0.00 | 0.00 | 0.00 | 66 | 1012.0 |
| 20260502221306 | 19 | 233 | 3.2 | 9.7 | 0.00 | 0.00 | 0.00 | 68 | 1012.1 |
| 20260502220307 | 19 | 273 | 3.2 | 8.0 | 0.00 | 0.00 | 0.00 | 67 | 1012.2 |
| 20260502215807 | 18 | 1 | 3.2 | 8.0 | 0.00 | 0.00 | 0.00 | 68 | 1012.3 |
| 20260502215307 | 18 | 268 | 3.2 | 8.0 | 0.00 | 0.00 | 0.00 | 68 | 1012.4 |
| 20260502214807 | 18 | 261 | 4.8 | 12.9 | 0.00 | 0.00 | 0.00 | 68 | 1012.5 |
| 20260502214307 | 18 | 268 | 4.8 | 11.3 | 0.00 | 0.00 | 0.00 | 68 | 1012.6 |
| 20260502213306 | 17 | 46 | 1.6 | 4.8 | 0.00 | 0.00 | 0.00 | 69 | 1012.7 |
| 20260502212807 | 17 | 192 | 1.6 | 4.8 | 0.00 | 0.00 | 0.00 | 71 | 1012.8 |
| 20260502212307 | 17 | 356 | 4.8 | 11.3 | 0.00 | 0.00 | 0.00 | 71 | 1012.9 |
| 20260502211807 | 17 | 4 | 6.4 | 12.9 | 0.00 | 0.00 | 0.00 | 70 | 1012.9 |
| 20260502211307 | 17 | 14 | 1.6 | 4.8 | 0.00 | 0.00 | 0.00 | 70 | 1013.0 |
| 20260502210807 | 16 | 214 | 4.8 | 11.3 | 0.00 | 0.00 | 0.00 | 74 | 1013.0 |
| 20260502210307 | 16 | 146 | 8.0 | 11.3 | 0.00 | 0.00 | 0.00 | 73 | 1013.1 |
| 20260502205807 | 16 | 186 | 6.4 | 11.3 | 0.00 | 0.00 | 0.00 | 73 | 1013.3 |
| 20260502205307 | 16 | 202 | 6.4 | 9.7 | 0.00 | 0.00 | 0.00 | 75 | 1013.3 |
| 20260502204806 | 16 | 116 | 4.8 | 9.7 | 0.00 | 0.00 | 0.00 | 75 | 1013.4 |
| 20260502204306 | 16 | 43 | 4.8 | 9.7 | 0.00 | 0.00 | 0.00 | 74 | 1013.5 |
| 20260502203807 | 16 | 339 | 3.2 | 9.7 | 0.00 | 0.00 | 0.00 | 74 | 1013.6 |
| 20260502203306 | 15 | 232 | 3.2 | 4.8 | 0.00 | 0.00 | 0.00 | 76 | 1013.7 |
| 20260502202806 | 15 | 174 | 3.2 | 4.8 | 0.00 | 0.00 | 0.00 | 76 | 1013.8 |
| 20260502202306 | 15 | 356 | 3.2 | 4.8 | 0.00 | 0.00 | 0.00 | 77 | 1013.9 |
| 20260502201807 | 15 | 291 | 8.0 | 11.3 | 0.00 | 0.00 | 0.00 | 76 | 1014.0 |
| 20260502201306 | 14 | 298 | 3.2 | 4.8 | 0.00 | 0.00 | 0.00 | 78 | 1014.0 |
| 20260502200806 | 15 | 254 | 3.2 | 4.8 | 0.00 | 0.00 | 0.00 | 77 | 1014.1 |
| 20260502200307 | 14 | 192 | 3.2 | 8.0 | 0.00 | 0.00 | 0.00 | 79 | 1014.2 |
| 20260502195806 | 14 | 168 | 3.2 | 4.8 | 0.00 | 0.00 | 0.00 | 78 | 1014.2 |
| 20260502195306 | 13 | 215 | 1.6 | 4.8 | 0.00 | 0.00 | 0.00 | 79 | 1014.3 |
| 20260502194807 | 13 | 349 | 3.2 | 12.9 | 0.00 | 0.00 | 0.00 | 79 | 1014.3 |